FENGYUN 1C DEB

Satellite information

Favourite Embed

Satellite Type and Status

DEBRISIN ORBIT

Key statistics

Satellite FENGYUN 1C DEB at a glance.

Uptime

9617

Days in orbit

Revolutions

≈ 14.2

Per day

Orbit

SSO

Sun Synchronous Orbit

Inclination

99.5

Latest

Satellite identification and parameters

Extended collection of information and parameters for FENGYUN 1C DEB.

Object identification

Identified? True

Debris? True

Object name: FENGYUN 1C DEB

International designator: 1999-025BJG

Object number (NORAD): 31178

Object ID (CCSDS): 31178

Country: PEOPLES REPUBLIC OF CHINA (PRC)

Current information (Y/N): Y

RCS size: SMALL

Orbital parameters

Period: 101.335 minutes

Inclination: 99.5104 deg

SMA: 7200.008 km

Apoapsis: 912.561 km

Periapsis: 731.184 km

RAAN: 242.8898 deg

Eccentricy: 0.01259558

Argument of periapsis: 232.7319 deg

Mean anomaly: 126.2316 deg

Mean motion: 14.21030248 rev/day

Mean motion (dot): 0.0000454 rev/day2

B* drag term: 0.0019525636 1/REarth

Two-line elements (TLE)

Creation date: Sept. 5, 2025, 10:27 a.m.

Reference frame: TEME

Reference center: EARTH

Epoch: Sept. 5, 2025, 6:28 a.m. UTC

TLE line 0: 0 FENGYUN 1C DEB

TLE line 1: 1 31178U 99025BJG 25248.26964612 .00004540 00000-0 19526-2 0 9990

TLE line 2: 2 31178 99.5104 242.8898 0125956 232.7319 126.2316 14.21030248944166

Live tracking on map

Real-time ground track for satellite FENGYUN 1C DEB.

In-orbit conjunctions

A list of the most updated potential collisions computed for object FENGYUN 1C DEB.

Target Orbit TCA Probability of collision Miss distance Type
CZ-6A DEB LEO 2024-11-14 17:00:20 0.0005169669 812.0 (m) DEBRIS
SL-16 R/B LEO 2024-07-07 01:53:42 0.0005513004 135.0 (m) ROCKET BODY

Associated space launch

Chinese polar orbiting meteorological satellite

FENGYUN 1C DEB was lifted into orbit during the mission ‘Long March 4B | Feng Yun 1C’, on board a Long March 4B space rocket.

The launch took place on May 10, 1999, 1:33 a.m. from Launch Complex 7.

For more information about the launch, click the button.

Launch to space Long March 4B | Feng Yun 1C
Long March 4B | Feng Yun 1C

Agency: N/A

Status: Launch Successful

Launch date: May 10, 1999, 1:33 a.m. UTC

Rocket: Long March 4B

Launch pad: Launch Complex 7

Location: Taiyuan Satellite Launch Center, People's Republic of China

...

Latest news about this satellite

There are no fresh news available about this satellite. Check back as we update our databases every day.


Newsletter sign-up

Weekly statistics, charts and insights to help you stay on top of the space industry.